sat.trackr.live / text

‹ back to catalog

STARLINK-11464 [DTC]

NORAD 62473 · 2024-254M

PAYLOAD ACTIVE UNKNOWN

§ Identity

Operator
Country
US
Launch date
2024-12-31
Launch site
AFETR
Launch vehicle
Mass (kg)
RCS (m²)

Purposes: comms

External: N2YO · Heavens-Above · Gunter

§ Orbital elements

Epoch: 2026-09-21T22:25:41.587104Z

Period
91.66 min
Inclination
42.9979°
Eccentricity
0.0000389
Mean motion
15.70951330 rev/d
Perigee alt
355.9 km
Apogee alt
356.4 km
Semi-major
6,734.3 km
B*
1.0693e-3
RAAN
120.2399°
Arg perigee
139.4223°
Mean anomaly
220.6674°
Rev number
10,031

§ Raw data

STARLINK-11464 [DTC]1 62473U 24254M   26264.93450911  .00139740  00000+0  10693-2 0  99952 62473  42.9979 120.2399 0000389 139.4223 220.6674 15.70951330100310

JSON: /api/v1/satellites/62473 · /tle

For live sub-satellite position, see the globe view (requires WebGL).

§ Visibility from observer

Set your observer location to see the next 7 days of passes ≥ 10°. The values pass through the URL so the page stays shareable.

No JS? Fill the form by hand. The geolocation button needs JavaScript.